Location: Unspecified
(0.0000°N, 0.0000°E)
Time: 00:20:49
(UTC+00:00)

Vanguard 1 Rocket - Visible Passes

Search period start: 27 May 2016 00:00
Search period end: 06 June 2016 00:00
Orbit: 651 x 4225 km, 34.3° (Epoch: 25 May)

Date Brightness Start Highest point End Pass type
(mag) Time Alt. Az. Time Alt. Az. Time Alt. Az.
27 May 10.5 01:38:13 14° E 01:38:13 14° E 01:40:03 10° E visible
27 May 8.6 03:55:36 48° W 03:58:23 65° SSW 04:14:16 10° SE visible
28 May 9.0 02:49:19 51° ESE 02:49:19 51° ESE 02:59:13 10° ESE visible
28 May 9.8 05:06:41 13° W 05:15:15 35° SSW 05:31:38 10° SE visible
29 May 10.6 01:42:58 13° ESE 01:42:58 13° ESE 01:44:06 10° ESE visible
29 May 8.7 04:00:20 45° SW 04:01:52 48° SSW 04:16:36 10° SE visible
30 May 9.4 02:53:55 39° SE 02:53:55 39° SE 03:02:02 10° SE visible
30 May 9.8 05:11:16 12° WSW 05:19:17 27° SSW 05:33:43 10° SSE visible
31 May 10.7 01:47:26 11° ESE 01:47:26 11° ESE 01:47:39 10° ESE visible
31 May 9.2 04:04:47 35° SSW 04:05:35 35° SSW 04:18:45 10° SE visible
01 Jun 9.8 02:58:15 29° SSE 02:58:15 29° SSE 03:04:34 10° SE visible
01 Jun 10.0 05:15:36 10° WSW 05:23:33 21° SSW 05:35:48 10° SSE visible
02 Jun 9.6 04:08:59 26° SSW 04:09:30 26° SSW 04:20:45 10° SSE visible
03 Jun 10.1 03:02:18 21° SSE 03:02:18 21° SSE 03:06:52 10° SE visible
03 Jun 10.3 05:20:52 10° SW 05:28:01 17° S 05:38:00 10° SSE visible
04 Jun 9.9 04:12:54 19° SSW 04:13:37 19° SSW 04:22:34 10° SSE visible
05 Jun 10.3 03:06:07 16° SSE 03:06:07 16° SSE 03:08:56 10° SSE visible
05 Jun 10.4 05:26:39 10° SSW 05:32:41 14° S 05:40:28 10° SSE visible
